Temperature
20 20 21 21 21 20 20 19 19 20 20 20 19 19 19 19 20 20 20 20 20 21 21 21 20 20 20 20 20 20 20 19 19 19 18 18 17 17 17 17 16 16 16 16
20 20 21 21 21 21 21 20 20 20 20 19 19 19 19 19 19 19 20 20 20 20 21 20 20 20 20 20 20 19 19 19 19 19 18 18 17 17 17 17 16 16 16 16
18 19 21 20 21 21 21 20 20 20 20 18 18 18 19 19 19 19 20 20 20 20 21 21 20 20 20 20 19 19 19 19 18 18 18 18 17 17 17 16 16 16 16 16
16 19 20 20 20 20 20 20 19 19 19 18 18 19 20 20 20 20 20 20 20 20 20 20 20 20 20 19 19 19 18 18 18 18 17 17 17 16 16 16 16 16 16 15
15 17 18 19 20 19 20 19 19 18 18 18 19 19 19 20 20 20 20 21 21 20 21 20 20 20 19 19 19 19 18 18 17 17 17 17 17 16 16 16 16 16 15 15
14 17 18 19 20 20 20 19 19 18 17 17 18 17 18 20 20 20 20 20 20 20 20 20 20 19 19 19 19 18 18 18 17 17 17 17 17 16 16 16 16 15 15 15
15 16 17 18 19 20 20 19 19 19 18 18 17 19 20 20 20 20 20 20 20 20 20 20 20 19 19 19 18 18 18 17 17 17 16 16 16 16 16 15 15 15 15 14
13 16 17 18 18 18 18 19 19 19 19 18 19 19 20 19 19 20 20 20 19 19 19 19 19 19 19 19 18 18 17 17 17 16 16 16 16 16 15 15 14 14 14 14
14 15 16 17 18 19 19 19 20 20 20 19 19 19 19 19 19 19 19 19 19 19 19 19 19 19 19 19 18 17 17 17 16 16 16 16 15 15 15 14 14 14 14 14
13 14 15 17 18 19 19 20 20 20 20 19 19 19 19 18 18 18 18 18 18 18 18 18 18 18 18 18 17 17 17 16 16 16 16 15 15 15 14 14 14 13 13 13
13 14 15 17 18 18 19 19 19 19 19 19 19 18 18 18 18 18 18 18 18 18 18 18 18 17 17 17 17 17 16 16 16 15 15 15 15 14 14 14 14 13 13 13
14 14 14 16 18 18 18 18 18 18 18 18 18 18 18 18 18 18 17 17 17 17 18 17 17 17 17 16 16 16 16 15 15 15 15 15 14 14 14 14 13 13 13 13
16 16 16 17 17 17 17 17 18 18 18 18 18 18 18 17 17 17 17 17 17 17 17 17 17 16 16 16 16 16 16 15 15 15 14 14 14 14 14 13 13 13 13 12
16 16 15 16 16 17 17 17 17 17 17 17 17 17 17 17 17 17 16 16 16 16 16 16 16 16 16 16 15 15 15 15 15 14 14 14 13 13 13 13 13 12 12 12
16 16 16 16 16 16 16 17 16 16 16 16 16 16 17 17 16 16 16 15 15 15 16 16 16 16 15 15 15 15 15 15 14 14 14 13 13 13 13 12 12 12 12 12
15 15 15 15 15 16 16 16 16 16 16 16 16 16 16 16 16 16 15 15 15 15 15 15 15 15 15 15 14 14 14 14 14 14 13 13 13 12 12 12 12 12 12 12
14 14 14 15 15 15 15 15 15 15 15 16 16 16 15 15 15 15 15 15 15 15 15 15 15 15 14 14 14 14 14 14 14 13 13 13 13 12 12 12 12 12 12 11
15 15 15 15 15 15 15 15 15 15 15 15 15 15 15 15 15 15 14 14 14 14 14 14 14 14 14 14 14 14 13 13 13 13 13 13 12 12 12 12 12 12 11 11
14 14 14 14 15 15 15 15 15 15 15 15 15 15 14 14 14 14 14 14 14 14 14 14 14 14 14 13 13 13 13 13 13 13 13 12 12 12 12 11 11 11 11 11
14 14 14 14 14 14 14 14 14 14 14 14 14 14 14 14 14 14 14 13 13 14 14 14 13 13 13 13 13 13 13 13 13 12 12 12 12 12 11 11 11 11 11 10
13 13 14 14 14 14 14 14 14 14 14 14 14 14 14 13 13 13 13 13 13 13 13 13 13 13 12 12 12 12 12 12 12 12 12 12 11 11 11 11 10 10 10 10
13 13 13 13 13 14 13 13 13 14 13 13 13 13 13 13 13 13 13 13 13 13 13 13 12 12 12 12 12 12 12 12 12 12 11 11 11 11 10 10 10 10 10 10
12 13 13 13 13 13 13 13 13 13 13 13 13 12 12 13 13 12 12 12 12 12 12 12 12 12 12 12 12 12 12 11 11 11 11 11 11 10 10 10 10 9 9 9
12 12 12 12 13 12 12 13 13 13 12 12 12 12 12 12 12 12 12 12 12 12 12 12 12 12 12 12 11 11 11 11 11 11 10 10 10 10 10 10 9 9 9 9
12 12 12 12 12 12 12 12 12 12 12 12 12 12 12 12 12 12 12 12 12 12 12 12 12 12 11 11 11 11 11 11 10 10 10 10 10 10 9 9 9 9 9 8
11 11 11 11 12 12 12 12 11 11 11 11 11 11 11 11 11 11 11 11 11 11 11 11 11 11 11 11 11 11 10 10 10 10 10 10 10 9 9 9 9 8 8 8
11 11 11 11 11 11 11 11 11 11 11 11 11 11 11 11 11 11 11 11 11 11 11 11 11 10 10 10 10 10 10 10 10 10 9 9 9 9 9 8 8 8 8 8
Wind_Speed
4 3 4 5 6 7 6 8 9 9 8 9 7 6 5 4 4 4 4 4 5 5 5 5 5 5 5 6 5 6 6 6 6 5 5 4 4 4 4 4 4 4 3 3
1 1 2 3 5 8 7 5 6 5 7 7 3 3 3 4 5 5 4 4 5 5 5 5 6 6 6 6 5 5 5 5 4 4 4 4 4 4 3 3 3 3 3 3
2 2 2 5 6 7 5 5 7 8 8 3 3 5 6 6 6 6 5 5 6 6 5 6 6 5 6 6 6 6 5 4 4 3 3 3 4 3 4 4 3 3 3 3
3 3 6 8 3 5 5 4 5 5 4 5 6 5 4 5 6 6 5 5 5 5 5 5 5 4 4 5 6 6 5 4 4 4 3 3 3 4 4 3 3 3 3 3
4 4 6 6 3 4 5 5 5 6 4 2 2 2 1 2 4 6 6 6 5 6 5 5 6 5 5 5 6 5 5 5 4 5 4 4 4 4 4 3 3 3 2 3
5 4 7 7 4 2 4 4 4 6 6 5 5 3 5 3 3 3 3 3 3 4 4 5 5 7 7 6 6 6 6 5 5 5 5 5 5 4 3 3 3 3 2 3
5 5 7 7 3 3 5 7 4 6 7 8 7 6 3 3 3 3 2 2 3 4 4 5 6 7 6 6 7 6 4 4 4 4 5 4 3 3 3 3 2 2 2 3
4 4 7 4 3 6 7 3 3 5 6 7 4 2 2 3 3 2 2 2 3 3 2 3 6 7 6 6 5 4 4 4 4 4 3 3 3 2 3 3 2 2 2 2
8 8 5 3 5 4 3 3 3 4 4 5 4 2 2 3 3 2 2 2 3 4 3 2 3 5 6 4 4 5 4 4 4 3 2 3 3 3 3 3 2 2 2 2
3 6 5 5 4 3 3 4 4 3 4 5 4 4 3 3 3 3 2 3 3 3 3 1 1 2 2 2 4 5 5 4 3 3 3 2 2 3 3 3 3 2 3 3
4 6 5 5 4 4 3 2 2 2 3 5 6 4 4 4 3 3 2 2 3 4 3 2 1 1 1 2 4 5 4 4 3 3 3 2 2 2 3 3 4 4 3 3
7 7 5 7 6 4 3 3 3 3 3 3 5 5 4 4 4 4 4 3 3 3 3 2 1 1 1 3 5 5 4 3 3 2 2 3 2 1 2 1 0 2 2 3
7 5 6 7 6 4 4 4 4 4 5 5 4 5 5 4 3 3 3 3 3 4 3 3 2 2 2 3 5 6 5 4 3 3 3 3 3 3 1 2 3 2 0 1
6 3 4 5 5 4 3 3 3 3 4 5 5 4 4 4 4 5 5 4 4 3 3 3 3 3 3 4 5 5 5 5 5 4 4 4 4 3 3 2 0 2 2 1
6 5 6 5 3 3 2 2 2 2 3 4 4 5 6 6 6 5 5 4 3 3 3 3 3 3 3 4 4 5 4 4 4 4 4 3 3 3 2 2 1 0 1 2
5 3 4 3 4 3 3 4 5 5 4 4 4 5 6 6 5 5 5 5 5 4 4 3 4 3 3 4 4 3 3 5 5 4 4 4 3 3 2 2 2 1 1 1
4 5 5 5 5 5 5 5 6 6 5 5 6 5 5 5 4 3 3 4 4 5 4 4 4 3 3 4 4 3 3 4 5 4 4 4 4 4 3 3 3 2 2 2
7 8 7 6 6 6 5 5 5 5 5 5 5 5 6 6 6 5 4 3 2 2 3 3 3 3 3 3 4 4 4 4 4 4 4 4 3 3 3 3 3 2 2 1
6 6 6 6 6 6 5 5 5 5 5 5 6 6 6 6 6 4 4 3 3 3 4 3 3 3 3 3 4 4 4 4 4 3 3 3 3 3 3 2 2 2 1 1
4 4 3 3 4 4 5 4 4 4 4 5 5 5 4 4 4 4 4 4 4 4 4 3 2 2 3 3 4 3 4 4 4 3 3 3 3 3 3 3 2 2 1 1
3 2 2 2 2 3 4 4 4 5 5 5 6 6 5 4 4 4 4 3 4 2 3 3 3 3 3 3 4 4 4 4 4 3 3 3 3 3 3 3 2 2 2 2
2 1 2 2 2 2 2 3 4 4 5 5 5 4 4 4 3 3 4 4 3 2 2 3 3 4 4 4 3 4 4 4 3 3 3 3 3 3 3 3 3 2 2 2
2 1 1 2 3 3 2 2 3 4 5 5 5 5 5 4 4 4 4 3 2 3 3 4 4 5 5 4 3 4 4 4 3 3 3 3 3 3 3 3 3 2 2 2
3 1 1 1 2 3 3 2 3 3 4 4 4 4 4 3 2 3 3 3 4 4 3 4 5 5 5 3 3 3 3 3 3 3 3 3 3 3 3 3 3 3 3 3
2 2 1 2 2 2 2 2 3 3 3 2 2 2 3 3 3 3 3 3 4 3 3 3 5 5 4 3 3 3 3 3 3 3 3 3 3 3 3 3 3 3 3 3
1 1 0 2 2 2 2 3 3 2 3 2 1 1 2 2 2 2 3 4 4 3 3 2 3 4 3 3 2 2 2 2 2 2 2 2 2 2 2 2 3 3 3 3
1 1 1 1 0 1 2 3 3 3 3 3 3 2 2 2 2 3 3 3 3 3 2 2 2 3 3 3 2 2 1 1 2 2 2 2 1 2 2 2 2 3 3 3
Wind_Direction
220 221 180 194 194 182 183 184 187 218 220 243 231 211 202 174 154 150 150 152 154 159 168 169 167 172 176 178 173 170 171 183 196 197 195 196 198 198 196 196 199 199 195 201
254 286 198 220 217 200 205 193 203 208 242 246 228 165 156 158 160 166 176 179 174 170 170 176 175 179 178 178 177 168 177 195 198 187 189 198 202 196 192 194 186 181 191 203
232 295 56 252 226 202 200 198 180 205 230 203 190 198 191 180 173 179 188 192 190 187 189 191 188 180 183 183 170 170 184 192 190 186 192 199 192 180 184 182 181 192 201 205
149 113 216 242 251 193 188 221 209 222 229 199 206 214 199 177 176 182 192 199 205 201 197 194 181 170 169 162 163 170 180 188 187 183 190 185 175 188 191 185 192 204 210 212
139 185 259 291 250 172 177 246 217 200 200 183 137 77 311 207 187 192 195 201 204 198 190 179 167 158 150 159 162 167 181 191 192 189 189 187 192 200 195 189 202 212 214 215
140 171 223 242 253 187 129 261 237 183 176 159 127 157 243 227 203 200 189 186 191 176 162 166 164 154 149 167 171 186 196 198 193 189 190 194 199 197 190 190 204 207 222 229
164 205 253 258 272 129 168 238 228 181 176 168 180 207 219 190 188 181 170 169 160 147 156 173 160 153 160 174 193 200 189 183 186 192 194 189 181 181 181 186 193 206 225 240
161 191 247 269 140 181 218 242 191 181 180 177 183 167 152 157 155 142 122 120 127 122 132 157 155 157 170 192 198 175 169 174 182 185 187 175 164 174 170 172 183 209 234 262
192 214 240 243 222 240 202 205 212 188 188 168 161 165 156 143 131 128 127 121 111 118 109 104 154 164 178 199 170 154 156 170 177 172 170 165 165 165 161 164 180 206 228 247
247 265 270 275 272 273 225 220 218 190 171 162 165 163 157 148 140 136 133 130 121 120 115 106 118 150 184 181 156 153 162 172 169 163 161 154 155 165 170 179 188 203 222 238
253 277 304 299 278 267 285 265 215 178 170 165 156 163 172 168 168 164 150 141 144 150 155 174 146 128 169 169 156 160 166 170 167 162 157 152 149 168 186 194 198 203 222 229
231 239 228 261 267 258 242 233 190 164 164 164 165 171 171 181 185 172 162 154 154 163 162 169 144 171 201 171 159 157 163 173 170 164 163 159 153 94 39 66 80 212 212 212
237 251 243 262 271 257 234 233 211 183 180 179 184 175 167 173 179 165 155 157 179 190 183 178 176 202 211 178 163 163 172 179 177 174 172 172 171 161 133 24 33 32 1 214
246 247 272 270 264 266 243 244 223 192 184 177 184 176 168 164 166 167 169 182 191 183 180 181 186 216 213 178 167 171 172 173 175 180 179 179 181 176 171 168 195 341 345 326
257 235 234 256 272 278 248 190 169 191 186 180 175 172 172 175 182 181 173 170 166 167 186 186 199 229 209 178 173 173 172 178 177 172 173 174 175 170 169 178 182 249 330 341
266 250 237 240 240 234 203 185 186 202 199 188 185 188 186 182 177 170 169 167 166 188 207 208 222 224 194 175 173 178 182 177 167 164 165 167 171 174 180 189 197 219 250 281
249 252 248 250 244 237 226 218 207 202 200 195 197 190 169 158 159 175 187 188 190 202 210 214 226 218 187 172 172 179 177 175 165 164 171 176 180 188 194 196 205 222 248 259
235 235 231 227 227 231 236 223 202 195 198 198 182 170 169 174 189 204 196 176 175 210 233 228 216 199 186 175 167 171 177 181 182 182 179 181 183 187 192 198 209 224 258 275
253 246 240 235 227 214 213 212 210 204 189 173 172 183 190 192 193 192 174 168 187 221 249 240 206 190 192 188 167 169 177 178 176 172 170 169 172 177 183 193 210 222 230 252
267 253 239 234 219 203 203 201 196 193 180 166 162 163 172 189 184 175 174 194 212 222 222 210 193 187 186 182 167 170 175 176 173 170 165 170 179 188 193 194 200 215 223 233
275 247 224 226 229 214 201 190 185 186 175 161 164 177 185 186 175 168 169 215 255 238 208 196 188 184 182 181 171 169 168 167 166 168 174 182 192 201 205 205 207 219 228 242
298 240 220 218 205 205 201 184 183 176 165 164 169 170 168 171 174 184 200 219 235 212 195 196 192 188 186 179 175 172 169 169 172 172 177 185 192 201 210 212 213 223 236 245
327 278 231 213 197 196 181 174 172 165 168 172 173 175 180 186 183 185 218 231 214 204 194 195 190 184 178 169 169 170 174 175 178 182 190 197 202 204 209 215 219 224 241 254
330 301 241 178 133 137 155 175 162 161 161 163 175 179 175 178 196 208 210 203 191 185 187 193 187 181 173 170 168 171 177 179 182 187 195 201 206 205 209 214 223 232 238 247
336 357 56 116 136 167 182 157 137 140 143 154 165 173 180 183 192 208 193 177 173 172 174 178 172 167 163 161 171 179 182 186 187 188 197 203 212 213 214 216 218 224 230 239
343 355 231 207 194 177 162 151 154 161 158 160 174 194 193 190 187 170 157 154 149 154 156 152 149 151 149 153 167 177 182 182 181 194 208 211 210 213 223 227 226 230 237 242
355 15 38 32 44 150 158 161 164 178 181 177 180 184 177 166 160 154 142 141 143 143 142 140 141 145 148 152 159 165 179 184 178 180 193 196 199 215 224 226 233 241 246 248
Height
1482 1479 1480 1481 1482 1485 1488 1492 1499 1493 1490 1480 1477 1477 1477 1478 1479 1481 1482 1484 1486 1488 1490 1492 1494 1496 1498 1501 1503 1505 1507 1508 1510 1511 1512 1514 1514 1515 1516 1517 1517 1518 1519 1519
1482 1479 1478 1480 1478 1478 1480 1482 1485 1484 1483 1473 1473 1475 1476 1476 1478 1479 1481 1484 1485 1487 1488 1490 1492 1494 1496 1499 1501 1503 1505 1506 1507 1508 1509 1510 1511 1512 1513 1514 1514 1515 1516 1517
1492 1484 1481 1486 1476 1475 1476 1475 1478 1481 1475 1471 1472 1472 1473 1474 1476 1478 1480 1482 1484 1485 1486 1488 1490 1492 1494 1496 1499 1501 1503 1504 1505 1506 1507 1507 1508 1509 1509 1510 1511 1512 1512 1513
1495 1490 1498 1480 1467 1467 1470 1470 1470 1470 1468 1468 1468 1469 1471 1472 1474 1475 1477 1479 1481 1483 1485 1487 1489 1491 1493 1495 1497 1499 1500 1502 1503 1504 1504 1505 1506 1506 1507 1508 1509 1509 1509 1510
1498 1497 1489 1475 1466 1467 1470 1471 1465 1467 1467 1467 1468 1469 1470 1471 1472 1474 1476 1478 1479 1480 1482 1485 1486 1488 1491 1493 1495 1497 1498 1499 1500 1501 1502 1502 1502 1503 1504 1505 1505 1505 1506 1506
1495 1493 1494 1475 1462 1461 1466 1472 1462 1463 1464 1466 1467 1473 1470 1468 1470 1472 1474 1476 1477 1478 1480 1482 1484 1487 1489 1491 1493 1494 1496 1497 1498 1499 1499 1499 1500 1500 1501 1502 1502 1502 1503 1503
1491 1490 1482 1466 1461 1461 1476 1471 1460 1460 1461 1463 1465 1466 1466 1467 1469 1471 1472 1474 1475 1476 1477 1480 1482 1484 1486 1489 1490 1492 1494 1495 1496 1496 1497 1497 1498 1498 1498 1499 1499 1499 1500 1500
1489 1489 1482 1461 1461 1464 1463 1457 1457 1457 1458 1460 1462 1463 1464 1466 1467 1469 1470 1472 1473 1474 1476 1478 1480 1482 1484 1486 1488 1491 1492 1492 1493 1494 1495 1495 1495 1496 1496 1496 1496 1496 1496 1496
1474 1472 1461 1458 1458 1457 1456 1456 1456 1456 1457 1459 1461 1462 1463 1465 1466 1468 1469 1471 1472 1474 1475 1477 1479 1481 1482 1484 1486 1488 1489 1490 1491 1492 1492 1492 1493 1493 1493 1493 1493 1493 1493 1493
1467 1461 1457 1456 1455 1454 1454 1455 1455 1455 1456 1458 1459 1461 1462 1464 1465 1467 1468 1470 1471 1473 1474 1475 1477 1479 1481 1482 1484 1485 1486 1487 1488 1489 1489 1490 1490 1490 1490 1490 1490 1490 1490 1490
1464 1458 1455 1453 1452 1453 1452 1453 1453 1454 1455 1457 1458 1460 1461 1462 1464 1465 1467 1469 1471 1472 1473 1474 1475 1477 1479 1480 1481 1482 1484 1485 1485 1486 1486 1487 1487 1487 1488 1488 1488 1487 1487 1487
1459 1454 1454 1451 1450 1450 1450 1450 1451 1452 1453 1455 1457 1458 1460 1461 1462 1463 1465 1467 1469 1470 1471 1472 1473 1476 1477 1478 1479 1480 1481 1482 1483 1484 1484 1485 1485 1485 1485 1486 1486 1486 1485 1485
1450 1449 1449 1448 1447 1447 1447 1447 1448 1449 1451 1452 1455 1456 1457 1458 1460 1462 1463 1465 1467 1468 1469 1470 1472 1474 1475 1475 1476 1477 1478 1479 1480 1481 1482 1482 1482 1482 1482 1483 1484 1484 1483 1483
1446 1446 1445 1444 1444 1444 1444 1445 1446 1447 1448 1450 1452 1454 1455 1456 1458 1460 1461 1464 1465 1466 1467 1469 1470 1471 1472 1473 1473 1474 1475 1476 1477 1478 1479 1480 1480 1480 1480 1480 1480 1480 1481 1481
1442 1441 1441 1441 1441 1441 1441 1442 1443 1444 1446 1447 1450 1451 1453 1454 1456 1458 1460 1462 1464 1465 1466 1467 1468 1469 1470 1470 1471 1471 1472 1473 1474 1476 1477 1478 1479 1479 1479 1479 1478 1478 1478 1478
1437 1437 1437 1437 1437 1438 1438 1439 1440 1442 1443 1445 1447 1449 1450 1452 1454 1456 1458 1460 1461 1462 1463 1464 1465 1466 1467 1467 1468 1469 1470 1471 1472 1473 1474 1475 1476 1476 1477 1477 1477 1477 1476 1476
1434 1433 1433 1434 1434 1434 1435 1436 1437 1438 1440 1442 1444 1446 1448 1450 1451 1453 1455 1457 1459 1460 1461 1462 1462 1463 1464 1464 1465 1466 1467 1468 1470 1470 1471 1472 1473 1474 1474 1474 1474 1474 1474 1474
1429 1429 1429 1429 1430 1430 1432 1433 1434 1436 1437 1439 1442 1444 1445 1447 1449 1450 1452 1454 1456 1457 1458 1459 1460 1460 1461 1462 1462 1463 1465 1466 1467 1468 1468 1470 1470 1471 1472 1472 1472 1472 1472 1472
1425 1425 1426 1426 1427 1427 1428 1430 1431 1433 1435 1437 1439 1440 1442 1444 1446 1448 1449 1451 1452 1453 1455 1456 1456 1457 1459 1459 1460 1461 1463 1463 1464 1465 1466 1467 1468 1469 1469 1470 1469 1469 1469 1469
1421 1421 1422 1422 1423 1424 1425 1427 1428 1430 1432 1434 1436 1438 1440 1441 1443 1445 1446 1448 1449 1450 1451 1452 1453 1455 1456 1457 1458 1459 1460 1461 1462 1463 1464 1465 1466 1466 1467 1467 1467 1467 1467 1467
1418 1418 1419 1419 1420 1421 1422 1424 1425 1427 1429 1431 1433 1435 1437 1438 1440 1442 1443 1445 1446 1448 1448 1450 1451 1452 1454 1455 1455 1457 1458 1458 1459 1460 1461 1462 1463 1464 1464 1464 1464 1464 1464 1464
1416 1416 1416 1417 1418 1419 1420 1421 1423 1424 1426 1428 1430 1432 1434 1436 1438 1440 1441 1442 1443 1444 1446 1447 1448 1450 1451 1452 1453 1454 1455 1456 1457 1458 1459 1460 1460 1461 1461 1461 1461 1462 1462 1461
1414 1414 1414 1415 1416 1417 1418 1419 1421 1422 1424 1426 1428 1430 1431 1433 1435 1437 1438 1439 1440 1441 1442 1443 1445 1447 1448 1450 1450 1452 1453 1454 1454 1455 1456 1457 1457 1458 1458 1458 1458 1458 1458 1458
1412 1412 1412 1413 1414 1415 1416 1417 1419 1421 1422 1424 1426 1428 1429 1431 1432 1434 1435 1436 1438 1439 1439 1441 1442 1444 1445 1446 1447 1449 1450 1451 1452 1453 1454 1454 1455 1455 1455 1455 1455 1455 1455 1455
1411 1411 1411 1412 1413 1414 1415 1416 1418 1419 1421 1423 1425 1426 1427 1428 1429 1431 1432 1434 1435 1436 1437 1438 1439 1441 1442 1444 1445 1446 1447 1448 1449 1450 1451 1451 1452 1452 1452 1452 1452 1451 1451 1451
1410 1410 1410 1411 1412 1413 1414 1415 1417 1418 1420 1421 1423 1424 1425 1426 1427 1428 1430 1431 1433 1434 1434 1436 1437 1439 1440 1441 1443 1443 1444 1445 1446 1447 1448 1448 1448 1449 1449 1449 1449 1448 1448 1447
1409 1410 1410 1411 1411 1412 1413 1414 1416 1417 1418 1419 1421 1422 1423 1424 1425 1426 1428 1429 1430 1431 1433 1434 1436 1437 1438 1439 1440 1441 1442 1442 1443 1444 1444 1445 1445 1445 1446 1445 1445 1445 1444 1443